QPF
0.00 0.00 0.00 0.00 0.00 0.00 0.00 0.00 0.01 0.01 0.00 0.01 0.01 0.00 0.00 0.00 0.00 0.00 0.00 0.00 0.00 0.00 0.00 0.00 0.00 0.00 0.00 0.00 0.00 0.01 0.03 0.03 0.04 0.05 0.05 0.05 0.07 0.07 0.07 0.07 0.06 0.08 0.09 0.10
0.01 0.00 0.00 0.00 0.00 0.00 0.01 0.01 0.00 0.00 0.00 0.02 0.01 0.00 0.00 0.00 0.00 0.00 0.00 0.00 0.00 0.00 0.00 0.00 0.00 0.00 0.00 0.00 0.00 0.01 0.01 0.02 0.02 0.03 0.04 0.05 0.06 0.05 0.05 0.06 0.08 0.06 0.06 0.06
0.01 0.00 0.00 0.00 0.00 0.00 0.00 0.01 0.00 0.00 0.00 0.01 0.01 0.01 0.00 0.00 0.00 0.00 0.00 0.00 0.00 0.00 0.00 0.00 0.00 0.00 0.00 0.00 0.00 0.01 0.01 0.01 0.01 0.03 0.03 0.04 0.05 0.04 0.05 0.06 0.06 0.04 0.04 0.04
0.01 0.00 0.00 0.00 0.00 0.00 0.00 0.00 0.00 0.00 0.00 0.00 0.01 0.01 0.01 0.01 0.01 0.00 0.00 0.00 0.00 0.00 0.00 0.00 0.00 0.00 0.00 0.00 0.00 0.00 0.00 0.01 0.01 0.02 0.03 0.03 0.02 0.03 0.05 0.05 0.03 0.04 0.04 0.03
0.02 0.00 0.00 0.00 0.00 0.00 0.00 0.00 0.00 0.00 0.00 0.01 0.01 0.01 0.02 0.02 0.01 0.01 0.01 0.00 0.00 0.00 0.00 0.00 0.00 0.00 0.00 0.00 0.00 0.00 0.00 0.01 0.01 0.02 0.02 0.03 0.03 0.03 0.03 0.03 0.05 0.05 0.04 0.03
0.01 0.00 0.00 0.00 0.00 0.01 0.00 0.00 0.01 0.01 0.01 0.01 0.00 0.01 0.01 0.01 0.02 0.02 0.01 0.01 0.00 0.00 0.00 0.00 0.00 0.00 0.00 0.00 0.00 0.00 0.00 0.01 0.01 0.01 0.01 0.03 0.04 0.04 0.05 0.04 0.04 0.03 0.03 0.03
0.00 0.00 0.00 0.00 0.00 0.01 0.00 0.00 0.00 0.01 0.01 0.01 0.00 0.01 0.01 0.01 0.01 0.01 0.01 0.00 0.00 0.00 0.00 0.00 0.00 0.00 0.00 0.00 0.00 0.00 0.00 0.01 0.01 0.00 0.01 0.01 0.02 0.03 0.04 0.03 0.04 0.04 0.03 0.03
0.00 0.00 0.00 0.00 0.00 0.01 0.00 0.00 0.01 0.02 0.01 0.01 0.01 0.00 0.01 0.01 0.00 0.00 0.00 0.00 0.00 0.00 0.00 0.00 0.00 0.00 0.00 0.00 0.00 0.00 0.00 0.00 0.01 0.01 0.01 0.01 0.02 0.02 0.03 0.03 0.03 0.03 0.02 0.01
0.00 0.00 0.00 0.00 0.00 0.00 0.01 0.00 0.00 0.01 0.01 0.01 0.02 0.01 0.02 0.01 0.00 0.00 0.00 0.00 0.00 0.00 0.00 0.00 0.00 0.00 0.00 0.00 0.00 0.01 0.02 0.02 0.02 0.02 0.01 0.01 0.01 0.02 0.03 0.03 0.02 0.02 0.02 0.02
0.00 0.00 0.00 0.00 0.00 0.00 0.01 0.01 0.01 0.01 0.02 0.02 0.02 0.02 0.02 0.01 0.00 0.00 0.00 0.00 0.01 0.00 0.00 0.00 0.00 0.00 0.00 0.01 0.01 0.01 0.03 0.04 0.04 0.03 0.02 0.02 0.02 0.02 0.03 0.03 0.03 0.02 0.02 0.03
0.00 0.00 0.01 0.00 0.00 0.00 0.00 0.00 0.01 0.01 0.01 0.02 0.02 0.02 0.01 0.01 0.01 0.01 0.01 0.01 0.01 0.01 0.00 0.00 0.00 0.00 0.00 0.01 0.01 0.02 0.04 0.04 0.04 0.03 0.03 0.03 0.03 0.02 0.02 0.02 0.02 0.03 0.03 0.02
0.00 0.00 0.01 0.00 0.00 0.00 0.01 0.01 0.02 0.03 0.02 0.02 0.03 0.03 0.01 0.01 0.02 0.03 0.02 0.02 0.02 0.01 0.01 0.01 0.01 0.02 0.02 0.02 0.03 0.04 0.05 0.05 0.06 0.05 0.06 0.08 0.07 0.04 0.03 0.02 0.02 0.02 0.02 0.02
0.00 0.00 0.00 0.01 0.00 0.00 0.01 0.01 0.01 0.02 0.03 0.02 0.02 0.03 0.01 0.01 0.04 0.06 0.04 0.04 0.05 0.05 0.03 0.02 0.02 0.02 0.03 0.03 0.04 0.04 0.05 0.06 0.06 0.04 0.03 0.04 0.03 0.02 0.02 0.02 0.02 0.02 0.01 0.01
0.00 0.00 0.00 0.00 0.00 0.01 0.00 0.00 0.01 0.01 0.01 0.01 0.02 0.04 0.03 0.02 0.06 0.09 0.07 0.05 0.07 0.12 0.09 0.04 0.01 0.01 0.01 0.02 0.02 0.02 0.02 0.02 0.02 0.02 0.01 0.01 0.02 0.02 0.03 0.02 0.02 0.02 0.02 0.01
0.00 0.00 0.00 0.00 0.00 0.00 0.00 0.00 0.01 0.01 0.01 0.01 0.01 0.03 0.04 0.04 0.05 0.08 0.07 0.05 0.04 0.05 0.07 0.04 0.01 0.01 0.01 0.01 0.01 0.01 0.01 0.01 0.01 0.01 0.01 0.01 0.01 0.01 0.01 0.02 0.01 0.01 0.02 0.01
0.00 0.00 0.00 0.00 0.00 0.00 0.00 0.00 0.00 0.00 0.01 0.01 0.01 0.02 0.03 0.05 0.09 0.10 0.08 0.08 0.07 0.05 0.04 0.01 0.00 0.01 0.00 0.00 0.00 0.01 0.01 0.01 0.01 0.01 0.02 0.02 0.02 0.01 0.02 0.02 0.01 0.01 0.02 0.02
0.00 0.00 0.00 0.00 0.00 0.00 0.00 0.01 0.01 0.00 0.00 0.01 0.01 0.02 0.02 0.02 0.04 0.06 0.06 0.06 0.08 0.08 0.06 0.03 0.01 0.00 0.00 0.00 0.01 0.00 0.00 0.00 0.00 0.01 0.02 0.02 0.02 0.02 0.02 0.02 0.02 0.02 0.03 0.03
0.00 0.00 0.00 0.00 0.00 0.00 0.01 0.01 0.01 0.01 0.01 0.01 0.01 0.02 0.02 0.02 0.03 0.04 0.05 0.04 0.07 0.06 0.04 0.02 0.02 0.02 0.02 0.02 0.01 0.01 0.01 0.01 0.01 0.02 0.03 0.03 0.03 0.02 0.02 0.02 0.02 0.03 0.03 0.04
0.00 0.00 0.00 0.00 0.00 0.01 0.01 0.01 0.00 0.00 0.01 0.00 0.01 0.01 0.01 0.01 0.01 0.03 0.04 0.06 0.09 0.06 0.04 0.03 0.03 0.02 0.03 0.04 0.04 0.03 0.04 0.04 0.04 0.04 0.04 0.05 0.05 0.05 0.04 0.04 0.04 0.06 0.06 0.06
0.00 0.00 0.00 0.00 0.00 0.02 0.03 0.02 0.01 0.01 0.02 0.00 0.01 0.01 0.01 0.01 0.03 0.03 0.04 0.05 0.06 0.04 0.03 0.03 0.02 0.02 0.02 0.04 0.05 0.04 0.05 0.06 0.06 0.05 0.05 0.06 0.07 0.08 0.07 0.06 0.06 0.07 0.08 0.07
0.00 0.00 0.01 0.01 0.01 0.02 0.01 0.01 0.01 0.02 0.04 0.01 0.01 0.00 0.00 0.01 0.02 0.03 0.03 0.04 0.04 0.05 0.04 0.03 0.02 0.02 0.02 0.04 0.05 0.06 0.05 0.07 0.07 0.07 0.08 0.08 0.08 0.08 0.09 0.08 0.07 0.08 0.08 0.08
0.02 0.01 0.01 0.01 0.02 0.03 0.01 0.01 0.02 0.02 0.01 0.01 0.01 0.01 0.01 0.02 0.02 0.02 0.03 0.03 0.03 0.04 0.03 0.02 0.02 0.02 0.03 0.04 0.04 0.05 0.06 0.07 0.07 0.07 0.09 0.10 0.11 0.08 0.06 0.07 0.07 0.07 0.06 0.07
0.02 0.02 0.01 0.02 0.02 0.02 0.01 0.01 0.01 0.01 0.01 0.01 0.01 0.01 0.01 0.02 0.03 0.03 0.02 0.02 0.03 0.02 0.02 0.02 0.02 0.03 0.04 0.04 0.04 0.05 0.06 0.07 0.08 0.09 0.09 0.10 0.10 0.06 0.04 0.04 0.04 0.04 0.04 0.03
0.02 0.01 0.01 0.01 0.01 0.01 0.01 0.01 0.01 0.01 0.01 0.01 0.01 0.00 0.01 0.01 0.01 0.01 0.01 0.01 0.02 0.02 0.02 0.02 0.03 0.03 0.04 0.04 0.05 0.06 0.07 0.09 0.10 0.10 0.10 0.11 0.11 0.09 0.04 0.03 0.03 0.03 0.03 0.02
0.02 0.01 0.01 0.02 0.02 0.02 0.01 0.01 0.01 0.01 0.01 0.01 0.01 0.01 0.01 0.01 0.01 0.01 0.01 0.01 0.02 0.03 0.03 0.03 0.03 0.04 0.04 0.04 0.05 0.05 0.06 0.07 0.07 0.07 0.07 0.07 0.09 0.10 0.08 0.06 0.03 0.02 0.02 0.02
0.01 0.01 0.02 0.03 0.04 0.03 0.02 0.01 0.01 0.01 0.01 0.02 0.03 0.03 0.02 0.01 0.02 0.02 0.02 0.02 0.02 0.02 0.03 0.03 0.03 0.03 0.03 0.03 0.03 0.03 0.04 0.05 0.05 0.05 0.04 0.03 0.04 0.05 0.06 0.05 0.04 0.04 0.03 0.03
MSLP
1002.80 1003.26 1003.57 1003.79 1003.96 1004.16 1004.42 1004.77 1005.19 1005.62 1006.02 1006.33 1006.52 1006.58 1006.56 1006.51 1006.50 1006.60 1006.82 1007.18 1007.63 1008.14 1008.62 1009.04 1009.38 1009.63 1009.82 1010.01 1010.24 1010.54 1010.93 1011.39 1011.88 1012.36 1012.78 1013.10 1013.30 1013.40 1013.42 1013.40 1013.40 1013.44 1013.56 1013.75
1003.14 1003.38 1003.48 1003.51 1003.54 1003.65 1003.89 1004.26 1004.73 1005.22 1005.66 1005.99 1006.15 1006.16 1006.06 1005.92 1005.83 1005.88 1006.10 1006.50 1007.03 1007.63 1008.23 1008.75 1009.15 1009.43 1009.61 1009.76 1009.93 1010.17 1010.53 1011.00 1011.55 1012.11 1012.64 1013.08 1013.38 1013.55 1013.60 1013.58 1013.54 1013.53 1013.58 1013.70
1003.20 1003.22 1003.12 1002.98 1002.89 1002.94 1003.16 1003.57 1004.10 1004.66 1005.15 1005.48 1005.62 1005.56 1005.35 1005.11 1004.92 1004.90 1005.09 1005.51 1006.12 1006.83 1007.56 1008.21 1008.73 1009.08 1009.30 1009.45 1009.59 1009.79 1010.12 1010.58 1011.14 1011.77 1012.37 1012.90 1013.30 1013.55 1013.66 1013.66 1013.61 1013.56 1013.56 1013.63
1002.97 1002.80 1002.53 1002.26 1002.10 1002.12 1002.38 1002.85 1003.46 1004.10 1004.64 1004.98 1005.08 1004.93 1004.61 1004.22 1003.89 1003.76 1003.88 1004.28 1004.94 1005.75 1006.62 1007.43 1008.10 1008.59 1008.91 1009.11 1009.27 1009.46 1009.76 1010.20 1010.75 1011.38 1012.03 1012.61 1013.08 1013.39 1013.55 1013.59 1013.55 1013.49 1013.46 1013.49
1002.53 1002.20 1001.81 1001.46 1001.27 1001.32 1001.64 1002.21 1002.93 1003.66 1004.26 1004.63 1004.68 1004.45 1003.98 1003.42 1002.92 1002.62 1002.62 1002.96 1003.61 1004.49 1005.48 1006.46 1007.31 1007.98 1008.45 1008.77 1008.99 1009.21 1009.50 1009.91 1010.42 1011.03 1011.66 1012.25 1012.74 1013.09 1013.29 1013.36 1013.34 1013.28 1013.24 1013.26
1001.98 1001.53 1001.06 1000.67 1000.50 1000.61 1001.03 1001.72 1002.57 1003.41 1004.10 1004.50 1004.54 1004.22 1003.62 1002.87 1002.17 1001.66 1001.48 1001.68 1002.27 1003.16 1004.23 1005.35 1006.39 1007.26 1007.92 1008.40 1008.75 1009.04 1009.34 1009.72 1010.19 1010.73 1011.31 1011.86 1012.33 1012.68 1012.89 1012.98 1012.99 1012.95 1012.92 1012.92
1001.46 1000.91 1000.37 999.97 999.83 1000.01 1000.54 1001.36 1002.35 1003.33 1004.12 1004.59 1004.65 1004.28 1003.57 1002.66 1001.75 1001.01 1000.61 1000.62 1001.06 1001.89 1002.98 1004.19 1005.38 1006.44 1007.31 1007.98 1008.48 1008.88 1009.23 1009.60 1010.02 1010.50 1010.99 1011.47 1011.89 1012.21 1012.42 1012.52 1012.54 1012.52 1012.50 1012.50
1001.06 1000.41 999.82 999.40 999.27 999.52 1000.14 1001.08 1002.20 1003.31 1004.24 1004.82 1004.94 1004.59 1003.83 1002.80 1001.71 1000.75 1000.09 999.86 1000.10 1000.78 1001.80 1003.03 1004.31 1005.52 1006.58 1007.44 1008.11 1008.64 1009.07 1009.46 1009.85 1010.26 1010.68 1011.08 1011.43 1011.71 1011.90 1012.00 1012.04 1012.04 1012.03 1012.05
1000.83 1000.08 999.41 998.95 998.81 999.07 999.74 1000.76 1001.98 1003.23 1004.30 1005.02 1005.27 1005.00 1004.27 1003.20 1001.98 1000.84 999.95 999.46 999.44 999.90 1000.77 1001.92 1003.21 1004.50 1005.69 1006.72 1007.55 1008.22 1008.75 1009.19 1009.59 1009.96 1010.33 1010.66 1010.96 1011.20 1011.37 1011.47 1011.53 1011.55 1011.57 1011.61
1000.76 999.90 999.14 998.60 998.40 998.62 999.27 1000.31 1001.59 1002.94 1004.15 1005.04 1005.45 1005.34 1004.72 1003.69 1002.45 1001.18 1000.10 999.36 999.07 999.27 999.91 1000.90 1002.10 1003.39 1004.65 1005.78 1006.76 1007.56 1008.20 1008.72 1009.15 1009.54 1009.88 1010.19 1010.46 1010.69 1010.86 1010.98 1011.06 1011.11 1011.16 1011.23
1000.78 999.82 998.96 998.31 998.01 998.12 998.69 999.67 1000.95 1002.35 1003.66 1004.71 1005.32 1005.42 1004.99 1004.10 1002.91 1001.62 1000.42 999.49 998.95 998.86 999.23 1000.00 1001.05 1002.25 1003.49 1004.68 1005.74 1006.65 1007.40 1008.02 1008.52 1008.95 1009.32 1009.65 1009.93 1010.18 1010.38 1010.54 1010.66 1010.76 1010.85 1010.94
1000.83 999.80 998.84 998.08 997.63 997.59 998.01 998.86 1000.06 1001.43 1002.80 1003.98 1004.78 1005.11 1004.92 1004.25 1003.22 1001.99 1000.77 999.71 998.98 998.65 998.76 999.27 1000.12 1001.18 1002.34 1003.52 1004.62 1005.61 1006.45 1007.15 1007.74 1008.24 1008.68 1009.06 1009.39 1009.69 1009.95 1010.18 1010.36 1010.52 1010.65 1010.78
1000.86 999.80 998.78 997.91 997.32 997.10 997.31 997.96 999.00 1000.27 1001.62 1002.86 1003.82 1004.37 1004.44 1004.03 1003.23 1002.17 1001.02 999.95 999.10 998.60 998.50 998.78 999.42 1000.31 1001.36 1002.47 1003.57 1004.58 1005.49 1006.27 1006.94 1007.52 1008.02 1008.48 1008.89 1009.26 1009.60 1009.90 1010.16 1010.38 1010.57 1010.73
1000.87 999.83 998.80 997.86 997.12 996.71 996.69 997.10 997.91 999.00 1000.25 1001.48 1002.52 1003.25 1003.57 1003.43 1002.90 1002.08 1001.11 1000.13 999.29 998.72 998.48 998.60 999.06 999.79 1000.71 1001.74 1002.79 1003.79 1004.72 1005.54 1006.26 1006.90 1007.47 1008.00 1008.48 1008.93 1009.35 1009.73 1010.07 1010.35 1010.59 1010.78
1000.90 999.94 998.93 997.96 997.12 996.53 996.27 996.41 996.94 997.79 998.85 999.98 1001.04 1001.88 1002.39 1002.53 1002.29 1001.76 1001.04 1000.25 999.54 999.00 998.74 998.78 999.13 999.74 1000.55 1001.48 1002.46 1003.42 1004.32 1005.14 1005.87 1006.53 1007.13 1007.69 1008.22 1008.73 1009.22 1009.66 1010.06 1010.40 1010.68 1010.90
1001.01 1000.17 999.23 998.26 997.34 996.60 996.13 995.99 996.21 996.77 997.59 998.57 999.55 1000.43 1001.09 1001.45 1001.51 1001.29 1000.88 1000.36 999.86 999.48 999.29 999.36 999.67 1000.22 1000.95 1001.79 1002.68 1003.56 1004.40 1005.16 1005.85 1006.48 1007.06 1007.62 1008.15 1008.68 1009.19 1009.68 1010.12 1010.50 1010.80 1011.04
1001.25 1000.53 999.67 998.73 997.78 996.92 996.26 995.86 995.80 996.07 996.62 997.38 998.25 999.10 999.85 1000.39 1000.71 1000.80 1000.72 1000.52 1000.30 1000.15 1000.13 1000.30 1000.65 1001.19 1001.87 1002.63 1003.44 1004.22 1004.96 1005.62 1006.22 1006.77 1007.28 1007.78 1008.27 1008.77 1009.27 1009.75 1010.20 1010.59 1010.91 1011.15
1001.65 1001.02 1000.23 999.32 998.36 997.43 996.62 996.02 995.72 995.72 996.02 996.56 997.28 998.07 998.85 999.53 1000.07 1000.44 1000.67 1000.79 1000.88 1001.00 1001.19 1001.51 1001.96 1002.52 1003.18 1003.89 1004.61 1005.29 1005.90 1006.44 1006.91 1007.33 1007.73 1008.12 1008.52 1008.95 1009.40 1009.85 1010.27 1010.66 1010.98 1011.22
1002.13 1001.54 1000.80 999.93 998.96 997.99 997.10 996.37 995.89 995.70 995.80 996.16 996.74 997.47 998.25 999.02 999.72 1000.32 1000.82 1001.23 1001.60 1001.97 1002.38 1002.86 1003.40 1004.02 1004.67 1005.33 1005.96 1006.53 1007.02 1007.42 1007.75 1008.03 1008.29 1008.55 1008.84 1009.17 1009.54 1009.93 1010.31 1010.67 1010.98 1011.21
1002.62 1002.02 1001.28 1000.42 999.47 998.50 997.58 996.81 996.25 995.94 995.92 996.18 996.66 997.33 998.11 998.94 999.75 1000.51 1001.21 1001.84 1002.43 1003.00 1003.58 1004.18 1004.80 1005.45 1006.09 1006.70 1007.25 1007.72 1008.09 1008.37 1008.57 1008.71 1008.84 1008.98 1009.15 1009.37 1009.65 1009.96 1010.30 1010.62 1010.91 1011.14
1003.00 1002.35 1001.58 1000.72 999.79 998.86 997.99 997.25 996.70 996.39 996.35 996.56 997.02 997.66 998.44 999.30 1000.18 1001.03 1001.85 1002.61 1003.33 1004.01 1004.68 1005.34 1005.99 1006.63 1007.25 1007.80 1008.28 1008.66 1008.94 1009.11 1009.21 1009.26 1009.28 1009.31 1009.39 1009.52 1009.71 1009.96 1010.23 1010.52 1010.79 1011.02
1003.21 1002.47 1001.66 1000.80 999.92 999.07 998.30 997.66 997.21 996.99 997.01 997.27 997.75 998.41 999.20 1000.07 1000.96 1001.84 1002.69 1003.49 1004.23 1004.94 1005.61 1006.25 1006.88 1007.47 1008.02 1008.51 1008.93 1009.24 1009.46 1009.58 1009.62 1009.60 1009.57 1009.54 1009.54 1009.61 1009.73 1009.92 1010.15 1010.40 1010.65 1010.88
1003.22 1002.40 1001.55 1000.71 999.90 999.16 998.53 998.06 997.78 997.71 997.86 998.23 998.78 999.47 1000.28 1001.14 1002.02 1002.86 1003.67 1004.42 1005.10 1005.74 1006.34 1006.91 1007.45 1007.95 1008.43 1008.85 1009.20 1009.47 1009.66 1009.76 1009.79 1009.77 1009.71 1009.66 1009.64 1009.66 1009.74 1009.88 1010.07 1010.29 1010.52 1010.75
1003.05 1002.18 1001.34 1000.54 999.83 999.24 998.79 998.52 998.44 998.56 998.87 999.36 1000.00 1000.74 1001.56 1002.39 1003.22 1003.99 1004.70 1005.34 1005.91 1006.43 1006.90 1007.34 1007.76 1008.16 1008.55 1008.90 1009.21 1009.46 1009.65 1009.77 1009.82 1009.82 1009.79 1009.75 1009.73 1009.73 1009.78 1009.87 1010.02 1010.21 1010.42 1010.64
1002.79 1001.94 1001.15 1000.44 999.86 999.43 999.17 999.10 999.22 999.52 999.99 1000.60 1001.31 1002.10 1002.90 1003.70 1004.44 1005.12 1005.71 1006.21 1006.64 1007.01 1007.34 1007.64 1007.94 1008.24 1008.54 1008.83 1009.11 1009.36 1009.57 1009.73 1009.83 1009.88 1009.89 1009.87 1009.85 1009.84 1009.86 1009.92 1010.03 1010.17 1010.35 1010.55
1002.55 1001.78 1001.09 1000.51 1000.08 999.82 999.74 999.85 1000.13 1000.58 1001.17 1001.86 1002.62 1003.40 1004.18 1004.91 1005.57 1006.14 1006.61 1006.99 1007.29 1007.52 1007.72 1007.91 1008.11 1008.32 1008.56 1008.81 1009.08 1009.34 1009.57 1009.77 1009.92 1010.02 1010.06 1010.07 1010.05 1010.02 1010.01 1010.02 1010.07 1010.16 1010.29 1010.46
Thickness
5861 5848 5842 5854 5866 5863 5859 5850 5845 5853 5871 5860 5856 5857 5859 5865 5860 5853 5848 5844 5839 5836 5837 5835 5832 5828 5821 5815 5810 5805 5801 5798 5795 5790 5785 5781 5778 5778 5777 5775 5772 5770 5768 5767
5843 5839 5858 5870 5871 5865 5857 5849 5851 5864 5874 5864 5859 5859 5865 5866 5864 5860 5855 5849 5845 5842 5839 5835 5833 5829 5823 5817 5812 5807 5803 5800 5797 5793 5790 5786 5783 5781 5779 5777 5774 5772 5770 5768
5834 5851 5869 5863 5859 5855 5855 5852 5855 5856 5865 5868 5857 5846 5856 5863 5868 5867 5865 5861 5855 5849 5842 5837 5834 5831 5827 5820 5816 5812 5807 5803 5799 5797 5793 5789 5785 5782 5779 5776 5774 5773 5772 5770
5843 5861 5862 5856 5854 5855 5847 5870 5868 5859 5849 5843 5847 5821 5843 5856 5855 5858 5861 5862 5859 5856 5850 5842 5838 5834 5831 5827 5823 5817 5811 5806 5802 5799 5794 5788 5782 5778 5778 5777 5775 5774 5773 5771
5838 5853 5852 5848 5857 5864 5860 5876 5869 5858 5844 5836 5838 5821 5832 5852 5843 5847 5857 5863 5863 5861 5855 5848 5843 5839 5837 5833 5827 5820 5813 5808 5804 5800 5796 5790 5786 5783 5782 5779 5776 5774 5773 5772
5845 5862 5862 5860 5869 5872 5870 5864 5859 5854 5838 5814 5833 5826 5823 5843 5846 5850 5856 5864 5866 5864 5859 5853 5848 5843 5839 5836 5830 5823 5814 5808 5805 5801 5797 5792 5787 5784 5781 5778 5775 5774 5773 5772
5827 5845 5862 5868 5854 5861 5858 5837 5815 5807 5805 5810 5843 5836 5838 5859 5867 5865 5862 5864 5867 5866 5860 5853 5847 5841 5837 5834 5830 5824 5815 5808 5805 5801 5797 5793 5789 5786 5782 5779 5776 5774 5773 5771
5808 5816 5847 5858 5850 5843 5846 5839 5809 5791 5795 5814 5834 5828 5845 5870 5875 5877 5875 5873 5870 5865 5861 5854 5848 5843 5838 5834 5830 5823 5815 5809 5805 5801 5797 5794 5791 5787 5784 5781 5779 5776 5775 5774
5813 5817 5853 5861 5863 5853 5838 5839 5846 5824 5814 5803 5812 5821 5840 5863 5864 5866 5868 5869 5865 5863 5861 5854 5849 5844 5838 5833 5829 5824 5816 5809 5805 5801 5798 5794 5790 5787 5784 5782 5780 5778 5775 5774
5824 5810 5835 5853 5856 5853 5850 5845 5835 5820 5794 5786 5799 5806 5817 5838 5844 5854 5856 5856 5857 5857 5857 5854 5848 5843 5838 5834 5828 5824 5816 5809 5805 5801 5797 5793 5789 5787 5784 5781 5778 5776 5774 5771
5824 5806 5817 5831 5827 5827 5834 5831 5828 5822 5816 5792 5782 5798 5840 5842 5843 5843 5847 5851 5850 5849 5849 5848 5845 5840 5835 5831 5825 5819 5814 5808 5803 5800 5795 5792 5788 5785 5782 5779 5777 5775 5772 5769
5818 5807 5799 5817 5841 5849 5842 5834 5828 5806 5800 5805 5794 5801 5848 5849 5847 5844 5842 5842 5842 5843 5843 5842 5839 5833 5827 5824 5820 5815 5810 5806 5802 5799 5794 5789 5786 5782 5779 5777 5775 5773 5770 5767
5807 5794 5778 5789 5812 5830 5829 5832 5833 5827 5814 5801 5791 5798 5841 5843 5840 5838 5833 5831 5832 5833 5831 5830 5828 5824 5819 5817 5814 5810 5807 5803 5800 5796 5790 5786 5782 5779 5776 5774 5772 5770 5767 5763
5803 5789 5782 5778 5793 5812 5812 5819 5825 5818 5804 5799 5800 5802 5818 5822 5822 5821 5821 5823 5823 5822 5818 5817 5816 5815 5813 5811 5808 5805 5803 5801 5798 5793 5788 5783 5779 5776 5773 5771 5769 5766 5763 5760
5795 5781 5788 5799 5812 5816 5811 5811 5814 5810 5810 5803 5803 5801 5801 5810 5812 5809 5812 5814 5811 5809 5805 5803 5805 5805 5804 5802 5801 5800 5798 5796 5793 5788 5784 5779 5777 5773 5770 5767 5765 5762 5760 5757
5785 5775 5780 5783 5802 5807 5802 5805 5804 5804 5809 5808 5805 5795 5807 5811 5809 5803 5801 5803 5799 5797 5796 5797 5798 5796 5795 5795 5793 5792 5791 5790 5787 5783 5779 5776 5772 5768 5765 5762 5759 5757 5755 5753
5771 5765 5761 5766 5786 5788 5781 5796 5797 5797 5801 5802 5792 5791 5802 5797 5791 5791 5791 5791 5789 5788 5788 5786 5787 5788 5788 5788 5787 5784 5784 5784 5781 5777 5773 5770 5766 5763 5760 5758 5754 5750 5748 5747
5760 5755 5756 5759 5762 5747 5780 5809 5806 5797 5796 5802 5796 5794 5794 5790 5784 5785 5786 5783 5780 5780 5779 5778 5779 5779 5779 5779 5779 5778 5776 5774 5772 5769 5766 5763 5759 5756 5754 5752 5747 5744 5743 5740
5766 5752 5747 5749 5746 5753 5774 5788 5788 5779 5780 5794 5790 5787 5786 5788 5780 5772 5777 5776 5773 5772 5771 5771 5773 5773 5772 5770 5769 5768 5765 5763 5761 5759 5757 5755 5752 5748 5745 5743 5740 5738 5735 5732
5761 5754 5742 5742 5736 5734 5753 5776 5789 5780 5761 5780 5781 5774 5775 5774 5757 5753 5764 5766 5765 5764 5763 5762 5763 5762 5761 5760 5759 5756 5754 5751 5749 5749 5748 5747 5745 5741 5738 5736 5733 5731 5728 5726
5733 5735 5733 5734 5733 5739 5757 5773 5775 5745 5742 5766 5770 5765 5762 5755 5752 5753 5757 5755 5754 5753 5753 5753 5752 5749 5749 5749 5749 5744 5742 5740 5739 5739 5738 5737 5735 5732 5730 5728 5726 5724 5721 5718
5720 5721 5724 5728 5722 5719 5750 5757 5745 5741 5757 5758 5757 5754 5751 5749 5748 5746 5744 5743 5742 5740 5740 5741 5739 5737 5738 5739 5737 5733 5730 5731 5731 5729 5728 5726 5724 5724 5723 5718 5716 5715 5713 5711
5720 5721 5724 5721 5716 5728 5741 5742 5745 5748 5745 5746 5745 5743 5741 5737 5734 5733 5731 5730 5730 5729 5728 5728 5727 5725 5726 5727 5726 5722 5721 5721 5720 5719 5718 5716 5713 5713 5712 5709 5707 5706 5705 5703
5714 5726 5720 5713 5716 5724 5729 5734 5737 5738 5736 5736 5735 5732 5730 5725 5724 5722 5720 5719 5718 5717 5716 5716 5715 5713 5712 5714 5714 5713 5712 5711 5709 5707 5705 5705 5703 5702 5701 5699 5699 5697 5696 5694
5703 5709 5706 5701 5705 5710 5714 5719 5722 5724 5725 5724 5723 5721 5718 5716 5713 5711 5709 5708 5706 5705 5705 5705 5703 5701 5701 5702 5701 5703 5703 5701 5698 5696 5695 5694 5694 5692 5690 5689 5688 5687 5686 5684
5698 5697 5694 5691 5699 5699 5699 5709 5713 5710 5709 5710 5708 5706 5707 5705 5702 5701 5699 5697 5697 5696 5695 5694 5692 5692 5692 5692 5692 5692 5692 5691 5688 5686 5685 5684 5683 5683 5682 5680 5678 5676 5674 5672